Regional Weather Roundup
Issued by NWS Upton, NY

Current Version | Previous Version | Text Only | Print | Product List | Glossary On
Versions: 1 2 3 4 5 6 7 8 9 10 11 12 13 14 15 16 17 18 19 20 21 22 23 24 25 26 27 28 29 30 31 32 33 34 35 36 37 38 39 40 41 42 43 44 45 46 47 48 49 50
390
ASUS41 KOKX 282109
RWROKX

REGIONAL WEATHER ROUNDUP
NATIONAL WEATHER SERVICE NEW YORK NY
500 PM EDT WED JUN 28 2017

NOTE: "FAIR" INDICATES FEW OR NO CLOUDS BELOW 12,000 FEET WITH NO
SIGNIFICANT WEATHER AND/OR OBSTRUCTIONS TO VISIBILITY.

NYZ071-072-176-178-NJZ106-104-282200-
NEW YORK CITY METRO AREA

CITY           SKY/WX    TMP DP  RH WIND       PRES   REMARKS
Central Park   MOSUNNY   78  47  33 W7G16     30.11F
Bronx Bot Gard   N/A     79  45  29 NW1       30.08F
LaGuardia APRT MOSUNNY   80  49  33 NW12G22   30.07F
Kennedy INTL   MOSUNNY   80  47  31 W15G21    30.09F
Breezy Point     N/A     73 N/A N/A SW6         N/A
Newark/Liberty PTSUNNY   81  49  32 NW9       30.08F
Teterboro      MOSUNNY   80  48  32 W9G18     30.07F
$$

NYZ177-179-078>081-282200-
LONG ISLAND NEW YORK

CITY           SKY/WX    TMP DP  RH WIND       PRES   REMARKS
Jones Beach      N/A     72 N/A N/A SW7G14      N/A
Matinecock PT    N/A    N/A N/A N/A W9          N/A
Farmingdale    NOT AVBL
MacArthur/ISP  MOSUNNY   79  48  33 W9        30.07F
Shirley        SUNNY     78  50  37 W12       30.08F
Mt Sinai Harb    N/A    N/A N/A N/A W7G13       N/A
Westhampton    MOSUNNY   73  51  46 SW10G25   30.10F
East Hampton   FAIR      75  48  38 W7        30.07F
Montauk          N/A     73  59  61 SW7       30.08F
$$

NYZ052-065-067-282200-
HUDSON VALLEY

CITY           SKY/WX    TMP DP  RH WIND       PRES   REMARKS
White Plains   MOSUNNY   77  47  34 NW10      30.08S
Larchmont Harb   N/A     75 N/A N/A W8          N/A
Croton O-T Hud   N/A     79 N/A N/A W8G14       N/A
Newburgh       MOSUNNY   77  50  38 NW12      30.09S
Montgomery     MOSUNNY   78  46  32 NW7       30.07S
Poughkeepsie   SUNNY     78  47  33 NW12      30.05S
Albany         MOSUNNY   76  50  40 NW10G20   30.05S
$$

NJZ001-105-106-008-010-013-015-019>022-104-282200-
NEW JERSEY

CITY           SKY/WX    TMP DP  RH WIND       PRES   REMARKS
Newark/Liberty PTSUNNY   81  49  32 NW9       30.08F
Teterboro      MOSUNNY   80  48  32 W9G18     30.07F
Caldwell       MOSUNNY   81  47  30 NW8       30.09F
Somerville     MOSUNNY   81  51  35 VRB5      30.09R
Linden         FAIR      79  46  31 NW8       30.09S
Perth Amboy      N/A     75 N/A N/A W12         N/A
Sussex         SUNNY     77  50  38 VRB5      30.09S
Andover          N/A     76  49  38 SW8       30.11S
Trenton        MOSUNNY   79  50  36 VRB6      30.11S
Millville      SUNNY     78  51  38 W8        30.15S
Atlantic City  MOSUNNY   78  48  34 W9        30.14R
Wrightstown    NOT AVBL
Toms River     MOSUNNY   78  49  35 NW8       30.13S
Belmar         MOSUNNY   78  50  37 W8        30.13S
$$

PAZ047>061-062-071-282200-
EASTERN PENNSYLVANIA

CITY           SKY/WX    TMP DP  RH WIND       PRES   REMARKS
Philadelphia   PTSUNNY   79  46  31 SW9       30.14S
Allentown      SUNNY     78  51  38 W13G18    30.11F
Scranton       MOSUNNY   75  50  41 SW6       30.11S
$$

CTZ002-004>006-009-010-012-RIZ004-006-007-MAZ004-011-015-282200-
SOUTHERN NEW ENGLAND
 IN CT

CITY           SKY/WX    TMP DP  RH WIND       PRES   REMARKS
Bradley INTL   MOSUNNY   78  48  34 W13G18    30.05S
Hartford       MOSUNNY   77  50  38 SW7       30.04F
Danbury        NOT AVBL
Wtrbury/Oxford MOSUNNY   73  48  40 NW6       30.09S
Bridgeport     MOSUNNY   82  48  30 W9G17     30.06F
Meriden        PTSUNNY   75  50  41 VRB5      30.06S
New Haven      MOSUNNY   73  55  53 SW9       30.07S
Chester          N/A     75  48  38 W7        30.07S
Groton         MOSUNNY   71  56  58 W14G23    30.05S
Wilimantic     MOSUNNY   78  48  34 NW7       30.05S

 IN RI

CITY           SKY/WX    TMP DP  RH WIND       PRES   REMARKS
Providence     MOSUNNY   76  47  35 W8G20     30.04F
Block Island   SUNNY     70  58  65 SW14G21   30.08F
Westerly       SUNNY     76  52  43 SW9       30.06F
 IN MA

CITY           SKY/WX    TMP DP  RH WIND       PRES   REMARKS
Boston         MOSUNNY   77  46  33 W10G21    30.00F
Worcester      SUNNY     72  44  36 W12       30.05F
Westfield      MOSUNNY   78  47  33 W14       30.04F
Provincetown   SUNNY     73  53  49 S8        30.04F
Nantucket      SUNNY     68  60  75 SW15      30.07F
$$

ANZ330-335-338-340-345-350-353-355-282200-
COASTAL MARINE OBSERVATIONS


STATION/POSITION TIME  SKY/WX   TEMP    WIND        PRES    VSBY  WAVE
                                AIR SEA DIR/SP/G                  HT/PER
                 (UTC)          (F)     (DEG/KT/KT) (MB)    (MI)  (FT/S)
NY HARB ENTRANCE 1950            70 70  190/ 12/ 14 1019.4          1/ 8
20 S FIRE ISLAND 2050            69 70  210/ 14/ 16 1019.0          2/ 3
GREAT SOUTH BAY  2015            72 76  240/ 17/ 19   N/A
23 SSW MONTAUK P 1950            67 66              1019.6          2/ 3
15 E BARNEGAT LI 2030               67                N/A           1/ 3
HUDSON CANYON    1950            69 70  300/  8/ 10 1020.8          2/ 4
KINGS POINT      2030            74 65  360/  8/ 13 1018.4
EXECUTION ROCKS  2045            76     300/  8/ 14   N/A
CENTRAL LI SOUND 2030            71     220/ 12/ 14   N/A           2
EASTERN LI SOUND NOT AVBL
ROBBINS REEF     2036                   290/ 11/ 15 1019.4
$$


>>>>>>>>>>>>>>>>>>>>>>>>>>>> KEY <<<<<<<<<<<<<<<<<<<<<<<<<<<
>                                                          <
>     SKY/WX - Sky Condition/Present Weather               <
>     TMP    - Temperature in Fahrenheit                   <
>     DP     - Dew Point in Fahrenheit                     <
>     RH     - Relative Humidity in Percent                <
>     WIND   - Direction (from) and Speed in MPH           <
>     PRES   - Mean Sea Level Pressure (inches of Hg)      <
>     WCI    - Wind Chill Index                            <
>     VSB    - VISIBILITY IN MILES                         <
>     HX     - HEAT INDEX                                  <
>     TC     - TEMPERATURE IN CELSIUS                      <
>     VRB    - VARIABLE WIND DIRECTION                     <
>                                                          <
>>>>>>>>>>>>>>>>>>>>>>>>>>>> KEY <<<<<<<<<<<<<<<<<<<<<<<<<<<




USA.gov is the U.S. government's official web portal to all federal, state and local government web resources and services.